Temp
64 64 64 64 64 63 62 62 62 61 60 60 60 60 59 59 59 59 59 60 60 60 59 59 59 60 60 59 59 59 58 58 58 58 58 58 57 57 57 57 56 56 56 56 55 55 55 54 53 53 50 39
62 62 63 62 62 62 61 61 60 60 60 59 59 59 58 57 57 58 58 58 58 59 58 58 58 59 59 59 59 58 58 58 58 58 58 58 57 57 57 56 56 56 55 55 55 55 54 54 53 52 50 36
56 59 59 60 60 60 60 59 59 59 58 58 57 57 56 56 56 56 56 57 57 58 58 57 56 58 59 59 59 58 58 58 58 57 58 57 57 57 56 56 56 55 55 55 55 55 54 53 52 51 43 35
50 56 58 58 58 58 58 58 58 58 57 56 56 56 56 55 51 51 50 56 51 56 56 55 54 57 58 58 58 58 58 58 58 57 57 57 57 56 56 55 54 54 54 54 54 54 53 52 50 38 34 35
48 51 56 56 58 58 58 57 57 57 54 54 51 52 51 49 44 41 42 44 43 54 46 53 54 55 56 57 58 58 57 57 57 57 57 57 57 56 55 54 53 52 52 54 54 53 52 51 40 35 35 36
48 49 52 46 47 48 50 52 49 46 46 48 44 48 45 44 45 43 41 40 48 44 45 45 53 54 55 57 57 57 57 56 56 57 57 57 57 56 55 54 40 39 46 51 52 52 51 39 32 33 34 34
47 45 44 44 44 46 50 47 46 43 44 42 43 43 43 44 43 43 43 44 46 45 49 48 51 53 54 54 55 55 55 55 55 55 56 56 56 55 54 41 36 34 32 31 47 47 37 32 32 31 32 33
44 44 44 43 42 43 43 43 43 43 43 43 42 42 42 42 43 42 41 45 46 45 42 42 46 48 48 48 49 51 48 49 49 53 53 53 53 47 41 35 35 34 31 32 31 32 33 32 31 32 33 33
44 44 45 44 44 43 42 42 42 42 42 42 42 41 42 41 42 40 40 40 40 40 40 40 40 40 41 41 40 46 40 40 39 41 36 37 39 35 36 36 36 33 35 36 35 33 33 32 32 33 33 32
46 45 44 44 44 43 42 42 42 42 42 42 41 41 41 42 40 40 39 39 39 39 39 39 39 39 39 39 39 41 39 38 38 37 36 36 37 36 34 33 33 33 36 36 34 35 33 34 33 33 33 31
45 43 43 43 44 42 41 41 41 40 41 41 41 40 41 40 39 38 38 38 38 38 38 38 38 38 38 38 38 39 37 37 37 36 36 37 37 35 36 36 35 34 34 33 33 34 33 33 34 34 33 31
45 43 43 43 43 42 43 41 40 39 39 40 40 40 40 40 38 37 37 37 37 37 37 37 37 37 38 37 37 38 37 36 36 36 36 37 37 37 37 36 36 36 36 36 33 33 34 33 34 34 32 33
43 43 42 41 41 41 43 39 39 39 39 39 39 39 39 39 37 36 36 36 36 36 36 36 36 36 36 36 37 37 36 36 35 35 35 36 35 36 36 35 36 36 37 36 37 36 35 33 34 34 34 34
41 41 40 40 39 40 41 39 38 38 38 38 38 37 37 38 37 35 35 35 35 35 35 35 35 35 35 35 36 36 35 35 34 34 34 35 36 35 35 36 37 37 36 36 36 35 36 35 35 34 32 33
39 39 39 39 39 39 38 38 38 37 37 36 36 36 36 36 37 36 34 34 34 34 34 34 34 34 34 34 35 35 34 35 34 33 33 34 34 34 34 34 35 35 34 34 35 35 34 35 35 35 35 33
37 37 37 38 38 38 37 38 36 36 35 36 35 35 35 35 35 36 33 33 33 33 32 33 33 33 33 33 34 34 33 34 34 34 34 34 34 34 34 33 34 34 33 33 34 34 34 35 34 34 34 34
36 36 36 36 36 37 37 36 36 35 35 35 35 35 34 34 34 34 32 32 32 33 31 31 31 32 32 32 33 33 33 33 33 33 33 33 34 33 33 33 33 34 33 33 33 33 34 34 33 34 34 33
35 35 35 36 35 36 36 35 34 34 34 34 34 33 33 33 33 33 32 31 31 31 30 30 31 30 31 32 32 32 32 31 31 31 31 32 31 33 32 31 31 31 31 33 33 33 34 33 33 33 33 34
35 35 34 34 34 34 34 34 33 32 33 32 33 33 32 32 33 32 31 31 30 30 30 29 29 30 30 31 30 30 30 30 30 30 29 30 29 30 30 30 31 31 30 31 32 33 34 33 34 34 34 34
34 34 34 33 36 34 33 32 32 31 32 32 31 31 31 31 32 32 31 31 30 29 30 29 29 29 29 29 29 28 29 29 28 28 28 29 29 28 28 30 29 30 30 31 31 33 33 33 34 34 34 34
32 33 33 34 34 34 33 32 31 30 31 32 31 30 30 30 32 31 31 31 30 29 30 29 28 28 28 28 27 27 27 27 28 27 27 27 29 28 27 27 27 29 29 30 31 31 31 32 33 33 34 34
32 32 33 32 32 35 34 33 32 31 30 30 29 30 29 29 30 32 30 30 29 28 30 29 27 27 27 27 26 26 26 26 27 27 27 26 27 28 27 26 27 27 28 29 29 30 30 31 32 32 33 34
30 31 31 31 31 32 32 32 31 32 29 29 30 29 30 30 30 31 30 30 29 28 29 27 27 26 26 26 25 25 25 25 26 26 26 25 26 27 27 26 26 27 27 27 28 28 29 30 30 32 33 34
27 28 28 28 29 29 31 31 31 32 30 30 29 30 30 29 29 28 29 28 28 27 28 26 26 25 25 25 25 24 23 24 24 24 25 24 26 25 26 27 27 27 27 27 26 28 29 29 30 30 32 33
25 24 25 27 27 27 29 30 32 32 32 31 29 30 30 29 29 28 28 29 27 27 28 26 25 25 25 25 25 24 23 24 24 25 25 24 25 24 23 24 26 26 27 24 25 27 26 27 29 31 33 31
25 25 24 24 24 25 26 27 28 28 31 30 30 30 29 28 28 28 28 29 28 28 26 24 24 24 24 24 24 24 24 24 25 24 23 24 21 24 22 21 25 24 26 21 21 21 21 26 28 29 29 29
24 25 25 25 25 25 25 28 29 28 29 29 27 28 29 28 27 27 27 26 27 27 25 24 23 23 24 24 25 23 22 22 22 23 22 22 21 20 22 22 25 24 25 20 23 22 22 17 23 25 28 27
26 26 26 25 25 26 26 25 29 28 27 25 26 25 27 26 27 27 26 26 25 26 23 23 23 23 23 23 24 23 22 22 22 22 22 22 22 22 17 20 20 25 24 23 21 11 16 17 20 16 22 23
24 25 23 24 24 25 24 24 24 23 23 25 25 25 24 24 26 26 25 25 25 25 22 22 22 22 23 23 23 23 22 22 22 22 22 22 21 20 19 17 20 21 24 23 24 19 16 11 12 12 19 21
24 25 23 22 21 20 21 20 20 20 20 22 22 22 23 23 24 24 24 24 24 24 24 22 22 21 21 21 21 22 22 22 22 22 21 22 22 20 21 19 18 17 22 23 23 23 22 21 12 14 17 19
26 22 22 22 21 21 20 19 21 21 22 22 23 23 21 22 23 22 23 23 23 22 23 22 21 21 21 21 20 22 21 20 20 20 20 22 21 20 21 20 16 16 18 22 21 23 22 22 22 21 17 10
MSLP
1026.60 1026.76 1026.84 1026.88 1027.04 1027.28 1027.44 1027.56 1027.64 1027.84 1027.92 1027.92 1027.92 1027.92 1027.92 1027.88 1027.84 1027.76 1027.72 1027.68 1027.64 1027.64 1027.64 1027.60 1027.48 1027.36 1027.32 1027.24 1027.16 1027.16 1027.12 1027.00 1026.88 1026.80 1026.72 1026.68 1026.68 1026.64 1026.60 1026.52 1026.44 1026.32 1026.32 1026.28 1026.24 1026.20 1026.16 1026.20 1026.24 1026.20 1026.28 1026.40
1027.16 1027.20 1027.28 1027.40 1027.56 1027.72 1027.84 1027.96 1028.08 1028.12 1028.16 1028.16 1028.16 1028.12 1028.12 1028.08 1028.08 1027.96 1027.92 1027.88 1027.88 1027.84 1027.88 1027.84 1027.76 1027.60 1027.48 1027.40 1027.28 1027.28 1027.24 1027.16 1027.04 1026.96 1026.88 1026.80 1026.80 1026.76 1026.72 1026.64 1026.60 1026.52 1026.40 1026.36 1026.32 1026.32 1026.28 1026.28 1026.32 1026.36 1026.44 1026.60
1027.84 1027.84 1027.92 1028.00 1028.12 1028.20 1028.24 1028.32 1028.36 1028.36 1028.40 1028.40 1028.36 1028.36 1028.32 1028.32 1028.28 1028.28 1028.20 1028.16 1028.12 1028.08 1028.08 1028.08 1028.00 1027.84 1027.64 1027.52 1027.48 1027.44 1027.36 1027.24 1027.16 1027.08 1027.00 1026.92 1026.92 1026.88 1026.80 1026.76 1026.76 1026.72 1026.64 1026.48 1026.36 1026.36 1026.40 1026.40 1026.44 1026.44 1026.56 1026.68
1028.32 1028.32 1028.44 1028.52 1028.56 1028.56 1028.56 1028.56 1028.56 1028.60 1028.60 1028.60 1028.60 1028.60 1028.60 1028.56 1028.56 1028.52 1028.52 1028.40 1028.44 1028.36 1028.32 1028.28 1028.16 1028.00 1027.84 1027.68 1027.60 1027.52 1027.44 1027.36 1027.20 1027.12 1027.04 1027.00 1026.96 1026.92 1026.88 1026.88 1026.88 1026.88 1026.76 1026.64 1026.56 1026.48 1026.48 1026.48 1026.56 1026.64 1026.64 1026.56
1028.68 1028.68 1028.68 1028.68 1028.64 1028.68 1028.72 1028.76 1028.76 1028.80 1028.88 1028.88 1028.92 1028.92 1028.92 1028.88 1028.84 1028.76 1028.68 1028.64 1028.64 1028.56 1028.56 1028.48 1028.36 1028.24 1028.12 1027.88 1027.72 1027.60 1027.52 1027.44 1027.28 1027.16 1027.08 1027.04 1026.92 1026.88 1026.88 1026.88 1026.96 1026.96 1026.88 1026.76 1026.64 1026.60 1026.60 1026.56 1026.72 1026.80 1026.76 1026.68
1028.92 1028.88 1028.84 1028.92 1028.92 1028.92 1028.96 1029.12 1029.24 1029.32 1029.32 1029.32 1029.36 1029.32 1029.28 1029.20 1029.04 1028.96 1029.00 1028.92 1028.92 1028.96 1028.92 1028.80 1028.56 1028.36 1028.20 1028.00 1027.84 1027.68 1027.60 1027.48 1027.36 1027.24 1027.08 1026.96 1026.88 1026.84 1026.80 1026.88 1027.04 1027.04 1026.96 1026.84 1026.72 1026.64 1026.68 1026.80 1026.84 1026.76 1026.80 1026.72
1029.44 1029.40 1029.44 1029.44 1029.48 1029.48 1029.56 1029.64 1029.72 1029.80 1029.76 1029.72 1029.68 1029.60 1029.56 1029.52 1029.48 1029.36 1029.28 1029.36 1029.40 1029.32 1029.12 1028.92 1028.68 1028.52 1028.32 1028.20 1028.04 1027.84 1027.64 1027.52 1027.40 1027.28 1027.08 1026.92 1026.84 1026.76 1026.80 1026.92 1026.96 1026.96 1026.92 1026.92 1026.80 1026.72 1026.76 1026.80 1026.80 1026.80 1026.80 1026.72
1029.92 1029.92 1029.88 1029.92 1029.88 1029.96 1030.04 1030.12 1030.12 1030.12 1030.04 1030.00 1029.96 1029.92 1029.88 1029.84 1029.76 1029.72 1029.76 1029.60 1029.44 1029.32 1029.32 1029.20 1029.00 1028.84 1028.68 1028.52 1028.32 1028.08 1027.92 1027.72 1027.56 1027.32 1027.16 1027.04 1026.92 1026.92 1026.92 1026.96 1026.92 1026.92 1026.92 1026.88 1026.84 1026.76 1026.72 1026.72 1026.76 1026.76 1026.68 1026.64
1030.44 1030.32 1030.20 1030.28 1030.32 1030.36 1030.44 1030.44 1030.36 1030.36 1030.36 1030.36 1030.28 1030.24 1030.16 1030.12 1030.00 1030.00 1029.92 1029.84 1029.76 1029.64 1029.56 1029.40 1029.28 1029.12 1028.96 1028.76 1028.60 1028.36 1028.16 1027.96 1027.76 1027.56 1027.48 1027.36 1027.20 1027.12 1027.04 1027.00 1026.96 1027.00 1026.92 1026.84 1026.76 1026.72 1026.72 1026.68 1026.68 1026.64 1026.64 1026.60
1030.76 1030.64 1030.80 1030.80 1030.80 1030.68 1030.76 1030.76 1030.76 1030.72 1030.72 1030.68 1030.64 1030.52 1030.40 1030.24 1030.20 1030.20 1030.16 1030.08 1030.04 1029.96 1029.84 1029.68 1029.60 1029.44 1029.28 1029.04 1028.88 1028.68 1028.48 1028.24 1028.08 1027.88 1027.80 1027.76 1027.56 1027.36 1027.32 1027.24 1027.16 1027.12 1027.00 1026.84 1026.76 1026.72 1026.72 1026.68 1026.64 1026.60 1026.56 1026.52
1031.08 1031.28 1031.36 1031.32 1031.28 1031.24 1031.28 1031.28 1031.20 1031.20 1031.12 1031.04 1030.92 1030.80 1030.64 1030.60 1030.60 1030.52 1030.44 1030.32 1030.28 1030.20 1030.16 1030.04 1029.92 1029.76 1029.60 1029.40 1029.20 1029.04 1028.88 1028.60 1028.40 1028.24 1028.08 1027.92 1027.76 1027.64 1027.44 1027.32 1027.20 1027.08 1027.00 1026.92 1026.80 1026.72 1026.68 1026.60 1026.52 1026.48 1026.40 1026.32
1031.64 1031.88 1031.84 1031.84 1031.76 1031.72 1031.76 1031.72 1031.68 1031.64 1031.56 1031.36 1031.20 1031.12 1031.04 1030.96 1031.00 1030.92 1030.80 1030.72 1030.60 1030.52 1030.40 1030.32 1030.20 1030.04 1029.80 1029.64 1029.48 1029.28 1029.12 1028.88 1028.64 1028.48 1028.32 1028.12 1027.88 1027.72 1027.60 1027.48 1027.32 1027.16 1027.04 1026.88 1026.72 1026.56 1026.44 1026.36 1026.28 1026.20 1026.16 1026.08
1032.24 1032.28 1032.28 1032.32 1032.28 1032.24 1032.16 1032.12 1032.12 1032.04 1031.80 1031.68 1031.56 1031.40 1031.28 1031.16 1031.24 1031.20 1031.20 1031.08 1030.96 1030.72 1030.56 1030.48 1030.32 1030.16 1030.00 1029.80 1029.64 1029.40 1029.16 1029.04 1028.84 1028.64 1028.48 1028.28 1028.08 1027.88 1027.68 1027.52 1027.32 1027.12 1026.92 1026.72 1026.56 1026.40 1026.24 1026.16 1026.08 1026.00 1025.92 1025.88
1032.56 1032.68 1032.64 1032.72 1032.80 1032.72 1032.52 1032.48 1032.40 1032.20 1032.08 1032.00 1031.84 1031.76 1031.64 1031.56 1031.56 1031.60 1031.48 1031.36 1031.12 1030.92 1030.72 1030.52 1030.32 1030.20 1030.04 1029.88 1029.68 1029.48 1029.28 1029.08 1028.96 1028.72 1028.48 1028.24 1028.04 1027.88 1027.68 1027.48 1027.24 1027.04 1026.88 1026.68 1026.56 1026.40 1026.28 1026.16 1026.04 1026.00 1025.88 1025.72
1033.04 1032.96 1032.96 1033.04 1033.00 1032.92 1032.88 1032.80 1032.60 1032.52 1032.44 1032.28 1032.20 1032.12 1031.96 1031.88 1031.80 1031.80 1031.72 1031.56 1031.32 1031.08 1030.96 1030.76 1030.60 1030.40 1030.20 1029.96 1029.76 1029.60 1029.40 1029.12 1028.92 1028.72 1028.56 1028.36 1028.20 1027.96 1027.76 1027.56 1027.32 1027.12 1026.92 1026.72 1026.56 1026.44 1026.32 1026.16 1026.04 1025.92 1025.80 1025.76
1033.36 1033.36 1033.36 1033.28 1033.16 1033.16 1033.16 1033.00 1032.92 1032.80 1032.72 1032.64 1032.56 1032.40 1032.24 1032.12 1032.04 1031.96 1031.92 1031.80 1031.60 1031.44 1031.28 1031.08 1030.92 1030.72 1030.48 1030.28 1030.00 1029.76 1029.56 1029.28 1029.00 1028.80 1028.60 1028.36 1028.16 1028.00 1027.76 1027.56 1027.32 1027.12 1027.00 1026.76 1026.60 1026.44 1026.28 1026.12 1026.00 1025.88 1025.76 1025.68
1033.76 1033.76 1033.64 1033.56 1033.56 1033.48 1033.36 1033.28 1033.20 1033.16 1033.08 1032.96 1032.84 1032.72 1032.56 1032.44 1032.32 1032.28 1032.24 1032.12 1031.96 1031.80 1031.64 1031.44 1031.20 1031.04 1030.84 1030.64 1030.36 1030.04 1029.76 1029.44 1029.16 1028.92 1028.68 1028.40 1028.20 1027.96 1027.76 1027.60 1027.36 1027.16 1027.00 1026.80 1026.56 1026.40 1026.20 1026.08 1025.96 1025.84 1025.72 1025.60
1033.96 1034.00 1033.92 1033.84 1033.80 1033.72 1033.60 1033.56 1033.52 1033.48 1033.36 1033.20 1033.04 1032.96 1032.80 1032.64 1032.52 1032.48 1032.44 1032.32 1032.20 1032.04 1031.88 1031.68 1031.52 1031.32 1031.08 1030.88 1030.60 1030.36 1030.00 1029.72 1029.44 1029.24 1028.96 1028.76 1028.48 1028.28 1028.12 1027.92 1027.68 1027.40 1027.12 1026.88 1026.64 1026.40 1026.20 1026.04 1025.92 1025.76 1025.60 1025.48
1034.40 1034.28 1034.20 1034.08 1033.96 1033.96 1033.84 1033.76 1033.72 1033.64 1033.56 1033.40 1033.28 1033.08 1032.96 1032.80 1032.68 1032.60 1032.52 1032.40 1032.28 1032.16 1032.00 1031.88 1031.68 1031.48 1031.32 1031.08 1030.84 1030.60 1030.32 1030.08 1029.76 1029.56 1029.36 1029.04 1028.80 1028.52 1028.32 1028.08 1027.88 1027.64 1027.40 1027.12 1026.80 1026.52 1026.28 1026.08 1025.84 1025.64 1025.48 1025.32
1034.76 1034.64 1034.52 1034.36 1034.16 1034.08 1034.00 1033.92 1033.84 1033.80 1033.68 1033.60 1033.44 1033.28 1033.20 1033.04 1032.88 1032.80 1032.68 1032.52 1032.36 1032.24 1032.04 1031.96 1031.80 1031.68 1031.48 1031.24 1031.00 1030.76 1030.52 1030.28 1030.08 1029.92 1029.64 1029.40 1029.16 1028.84 1028.56 1028.28 1028.04 1027.80 1027.56 1027.20 1026.92 1026.64 1026.40 1026.16 1025.96 1025.72 1025.48 1025.24
1034.96 1034.88 1034.80 1034.68 1034.52 1034.32 1034.20 1034.16 1034.04 1034.00 1033.88 1033.76 1033.60 1033.52 1033.44 1033.36 1033.16 1033.04 1032.88 1032.72 1032.60 1032.44 1032.24 1032.08 1032.00 1031.84 1031.72 1031.52 1031.32 1031.08 1030.80 1030.60 1030.40 1030.20 1029.92 1029.64 1029.40 1029.24 1029.00 1028.68 1028.36 1028.00 1027.68 1027.36 1027.08 1026.80 1026.56 1026.28 1026.04 1025.76 1025.52 1025.24
1035.32 1035.16 1035.04 1035.00 1034.80 1034.60 1034.44 1034.36 1034.24 1034.12 1034.00 1033.92 1033.80 1033.68 1033.60 1033.52 1033.36 1033.20 1033.08 1032.92 1032.76 1032.64 1032.44 1032.28 1032.20 1032.08 1031.92 1031.72 1031.56 1031.36 1031.16 1031.00 1030.68 1030.44 1030.20 1029.92 1029.64 1029.40 1029.24 1028.96 1028.64 1028.28 1027.92 1027.64 1027.28 1026.92 1026.64 1026.28 1026.04 1025.76 1025.52 1025.24
1035.56 1035.44 1035.28 1035.20 1035.04 1034.88 1034.64 1034.52 1034.36 1034.16 1034.08 1034.00 1033.88 1033.80 1033.68 1033.56 1033.48 1033.32 1033.16 1033.00 1032.84 1032.72 1032.52 1032.40 1032.32 1032.24 1032.08 1031.92 1031.76 1031.60 1031.44 1031.24 1030.96 1030.72 1030.44 1030.28 1029.84 1029.56 1029.44 1029.16 1028.92 1028.60 1028.20 1027.80 1027.40 1027.00 1026.52 1026.24 1026.00 1025.72 1025.48 1025.12
1035.64 1035.56 1035.48 1035.32 1035.16 1035.00 1034.80 1034.64 1034.44 1034.28 1034.16 1034.04 1033.96 1033.88 1033.76 1033.68 1033.56 1033.44 1033.28 1033.04 1032.88 1032.72 1032.56 1032.44 1032.44 1032.40 1032.24 1032.08 1031.92 1031.80 1031.68 1031.48 1031.28 1031.04 1030.72 1030.52 1030.12 1029.88 1029.52 1029.32 1029.04 1028.68 1028.28 1027.80 1027.40 1026.80 1026.36 1026.24 1025.92 1025.60 1025.24 1024.88
1035.72 1035.72 1035.60 1035.44 1035.40 1035.24 1035.00 1034.80 1034.48 1034.40 1034.20 1034.12 1034.08 1033.96 1033.84 1033.80 1033.68 1033.56 1033.40 1033.16 1033.00 1032.84 1032.72 1032.68 1032.60 1032.52 1032.40 1032.24 1032.12 1032.04 1032.00 1031.80 1031.60 1031.28 1031.12 1030.80 1030.60 1030.28 1029.92 1029.64 1029.24 1029.04 1028.52 1028.20 1027.04 1026.68 1026.44 1026.00 1025.64 1025.12 1024.72 1024.60
1035.84 1035.72 1035.76 1035.72 1035.60 1035.36 1035.16 1034.92 1034.68 1034.48 1034.32 1034.20 1034.16 1034.04 1034.00 1033.92 1033.84 1033.72 1033.56 1033.36 1033.20 1033.04 1033.00 1032.96 1032.84 1032.76 1032.64 1032.44 1032.28 1032.20 1032.16 1031.96 1031.76 1031.52 1031.28 1031.04 1030.88 1030.52 1030.36 1030.20 1029.64 1029.48 1028.80 1028.92 1028.48 1027.80 1026.64 1025.52 1025.08 1024.60 1024.40 1024.32
1035.72 1035.64 1035.60 1035.56 1035.52 1035.36 1035.20 1034.88 1034.68 1034.52 1034.40 1034.28 1034.24 1034.20 1034.12 1034.08 1034.00 1033.88 1033.72 1033.56 1033.40 1033.20 1033.20 1033.16 1033.04 1032.96 1032.80 1032.68 1032.48 1032.40 1032.28 1032.12 1031.96 1031.68 1031.52 1031.32 1031.20 1030.76 1030.56 1030.36 1029.96 1029.80 1029.64 1029.88 1029.00 1028.72 1027.56 1027.28 1025.16 1024.72 1024.36 1024.36
1035.56 1035.52 1035.48 1035.44 1035.36 1035.32 1035.20 1035.00 1034.68 1034.56 1034.48 1034.40 1034.32 1034.32 1034.20 1034.20 1034.08 1034.00 1033.88 1033.68 1033.60 1033.40 1033.36 1033.28 1033.20 1033.08 1032.92 1032.84 1032.64 1032.60 1032.48 1032.24 1032.12 1031.84 1031.68 1031.52 1031.36 1031.12 1031.08 1030.52 1030.36 1030.00 1029.96 1029.88 1029.44 1030.12 1028.84 1028.32 1027.60 1026.56 1025.24 1025.64
1035.48 1035.44 1035.44 1035.40 1035.32 1035.24 1035.08 1034.92 1034.80 1034.76 1034.72 1034.56 1034.52 1034.40 1034.32 1034.28 1034.16 1034.12 1033.96 1033.84 1033.72 1033.52 1033.48 1033.40 1033.32 1033.20 1033.08 1032.96 1032.84 1032.72 1032.60 1032.40 1032.20 1032.08 1031.88 1031.76 1031.52 1031.44 1031.32 1030.96 1030.56 1030.40 1030.12 1029.96 1029.80 1030.00 1029.40 1029.32 1027.76 1027.84 1026.80 1026.52
1035.36 1035.36 1035.40 1035.40 1035.40 1035.40 1035.28 1035.32 1035.08 1035.16 1035.00 1034.84 1034.68 1034.52 1034.36 1034.36 1034.24 1034.16 1034.08 1033.96 1033.88 1033.72 1033.56 1033.52 1033.40 1033.36 1033.24 1033.16 1033.04 1032.88 1032.72 1032.56 1032.36 1032.24 1032.12 1031.96 1031.72 1031.68 1031.40 1031.16 1030.96 1030.84 1030.20 1030.00 1029.84 1029.76 1029.60 1029.36 1029.60 1028.96 1028.48 1027.76
1035.16 1035.24 1035.32 1035.36 1035.44 1035.44 1035.48 1035.40 1035.32 1035.12 1035.12 1034.92 1034.68 1034.48 1034.48 1034.36 1034.32 1034.28 1034.20 1034.12 1034.00 1033.88 1033.72 1033.60 1033.56 1033.48 1033.40 1033.32 1033.24 1032.96 1032.84 1032.80 1032.68 1032.52 1032.44 1032.08 1032.00 1031.84 1031.52 1031.40 1031.40 1031.04 1030.64 1030.04 1030.12 1029.64 1029.60 1029.52 1029.44 1029.28 1029.12 1029.72
Wind_Speed
10 9 8 8 8 9 9 8 9 9 8 9 9 8 8 8 8 8 8 8 9 10 11 11 10 9 9 9 8 9 9 10 10 10 10 9 10 10 11 11 11 12 10 11 12 13 13 11 10 9 8 5
12 11 10 11 9 8 8 9 8 7 8 7 8 8 7 6 6 7 7 7 7 8 9 9 10 9 9 9 9 9 9 9 10 9 9 9 9 10 10 10 11 11 11 11 11 12 13 12 11 9 9 4
9 14 13 11 9 8 7 6 5 5 6 6 6 7 6 5 5 5 5 5 6 7 8 7 7 8 9 9 9 8 9 10 9 8 8 9 9 10 10 10 11 11 11 11 12 11 11 12 11 10 6 4
6 8 10 8 7 6 5 4 4 5 4 3 3 6 6 6 3 3 3 4 3 4 5 6 4 7 9 9 9 8 10 11 9 8 8 9 8 9 9 9 10 10 10 10 11 12 11 10 9 5 5 5
4 3 5 4 5 5 4 4 4 6 8 8 8 9 10 9 5 3 2 2 1 5 2 6 5 7 9 9 9 9 10 10 10 9 8 8 9 8 8 8 7 7 8 9 10 10 10 10 6 3 4 4
2 1 2 1 1 1 3 8 10 9 8 9 7 11 8 7 6 6 4 3 5 5 4 6 10 9 10 10 11 10 10 9 9 9 9 10 10 9 9 8 3 3 5 6 7 8 8 4 3 3 3 4
5 6 5 5 6 6 9 8 8 7 7 6 7 7 7 7 7 8 8 7 7 5 9 9 15 14 14 13 13 12 11 11 11 10 10 10 10 11 9 3 3 3 2 3 4 4 3 2 2 2 3 3
7 7 7 7 7 7 6 7 6 6 7 7 8 8 7 6 6 6 6 8 11 9 7 7 10 14 12 11 11 14 9 9 9 11 10 10 10 7 4 3 4 3 3 3 3 2 2 3 2 2 3 3
7 6 8 8 7 7 6 6 7 7 8 8 8 8 7 7 6 6 6 7 7 7 7 7 7 8 8 7 7 10 6 7 6 6 6 5 6 4 3 4 5 3 4 4 4 4 4 3 4 4 3 4
8 10 8 8 7 7 6 7 7 7 7 8 8 7 7 7 8 7 7 7 7 7 7 7 7 7 7 8 8 7 7 7 7 7 6 5 5 6 4 3 3 3 3 4 4 4 4 4 4 5 5 4
10 9 8 7 7 7 7 6 7 7 7 7 8 8 7 8 7 7 7 7 7 8 7 7 7 7 6 7 7 7 6 7 7 6 7 6 6 5 5 5 5 4 4 3 3 4 4 4 5 5 6 5
11 9 10 9 8 8 8 7 7 7 6 7 8 7 7 6 6 7 7 7 7 7 6 6 6 6 6 6 6 5 5 6 6 6 6 6 6 6 6 5 5 5 5 5 4 4 4 4 5 6 6 5
10 10 9 9 9 9 8 7 6 6 6 7 7 7 8 7 8 7 6 7 6 5 6 6 6 6 6 5 6 6 6 5 6 6 6 6 5 6 6 6 6 5 5 6 6 6 5 4 5 5 6 5
10 9 10 9 8 7 7 6 6 6 7 6 7 7 7 8 7 7 7 6 6 7 8 7 7 6 6 6 6 6 6 6 5 5 5 6 6 6 6 6 6 6 6 6 6 6 6 6 6 5 5 6
9 9 9 8 7 7 7 6 6 6 6 7 6 6 7 7 7 6 7 7 8 7 7 7 7 7 6 7 7 6 6 5 5 5 5 5 6 6 6 6 5 6 6 6 6 5 5 6 6 6 6 5
9 8 8 7 8 8 7 6 6 6 6 6 6 6 7 7 7 7 7 7 7 7 8 7 7 7 7 7 7 7 6 7 6 5 5 5 5 5 4 6 6 6 6 6 6 5 5 5 6 6 6 6
7 7 7 7 7 7 7 6 6 7 6 6 6 6 6 7 7 6 6 7 7 7 7 7 7 7 7 7 7 7 7 7 6 6 7 7 6 7 6 7 8 6 6 7 7 6 6 6 6 6 6 6
8 7 6 6 6 6 7 6 6 6 6 6 6 5 6 6 6 6 6 6 6 6 6 7 6 7 7 7 7 7 7 7 6 7 7 7 7 7 7 7 7 7 7 7 7 7 6 6 6 6 6 6
8 7 7 6 6 6 5 5 5 5 5 5 5 6 6 6 6 7 7 6 6 6 5 6 6 7 7 7 7 7 7 7 7 7 7 7 8 7 7 6 6 6 7 7 8 7 7 7 7 7 7 7
6 7 6 6 6 5 5 5 4 5 5 4 5 5 5 6 6 6 7 7 7 6 6 6 6 6 7 8 7 7 7 7 8 8 7 7 7 9 8 8 8 6 7 7 8 7 7 7 7 7 7 8
5 6 7 7 6 7 6 5 5 4 4 5 5 5 5 5 5 5 6 6 6 6 6 6 6 5 6 6 7 7 7 7 7 7 7 7 8 6 8 8 8 8 7 8 7 7 7 7 8 7 7 8
6 5 4 6 5 5 5 6 5 4 4 5 4 4 4 3 4 4 5 5 5 5 5 5 4 5 6 6 6 6 7 7 7 7 7 8 7 7 7 7 8 8 8 7 8 8 8 8 7 7 7 7
4 4 4 3 5 5 5 4 4 5 4 3 4 5 3 4 5 5 5 5 4 4 5 5 4 5 5 5 6 6 7 7 8 8 8 9 9 7 6 6 7 7 8 8 8 8 8 7 6 7 7 7
3 3 4 4 5 4 5 5 4 5 5 3 5 4 5 5 5 5 6 6 4 4 5 4 4 4 5 5 5 7 8 8 7 9 9 9 9 9 8 6 7 7 9 9 8 8 7 6 8 9 9 9
3 4 4 2 4 5 6 6 6 5 5 4 3 4 5 5 6 7 7 7 6 5 5 5 4 5 5 5 5 5 6 6 7 7 7 7 6 8 9 8 7 8 9 9 9 7 8 8 6 9 9 8
2 2 2 3 5 4 6 6 5 5 6 4 3 5 5 5 6 7 8 7 6 5 4 4 4 5 5 6 5 5 6 7 7 8 7 6 7 5 6 6 7 7 9 6 8 12 12 9 6 5 4 6
1 1 2 2 4 4 5 4 4 4 6 3 4 5 4 6 5 6 7 6 6 4 3 4 4 4 4 5 5 6 6 7 7 7 7 7 7 8 5 6 5 7 7 6 8 7 8 7 10 4 5 2
1 1 3 3 4 4 5 6 5 4 4 3 5 5 4 5 5 7 6 6 5 5 3 3 4 4 4 5 5 6 7 7 8 7 7 7 8 7 8 6 6 6 6 5 8 4 4 6 5 10 2 10
2 1 2 3 3 3 4 3 4 3 4 4 4 4 3 4 5 6 5 5 6 6 3 4 4 4 4 5 6 6 6 7 7 7 6 8 7 7 8 8 7 6 6 6 5 3 4 3 2 3 9 13
1 1 2 3 4 6 5 5 5 6 6 6 4 4 3 4 4 6 5 5 6 6 3 4 4 3 4 5 6 6 6 6 6 8 8 8 7 8 8 8 8 7 7 6 6 4 5 4 3 7 8 8
1 0 1 2 2 3 3 5 4 3 4 6 5 3 3 3 4 4 5 5 7 4 4 3 4 3 5 5 6 6 5 6 7 7 8 8 8 7 8 8 7 8 8 7 5 5 5 7 6 6 7 2
Wind_Direction
82 83 82 89 91 82 80 78 73 75 73 63 58 52 49 45 40 39 39 39 44 42 34 20 10 7 10 7 8 10 10 4 3 3 2 4 4 3 4 3 5 6 9 9 10 10 16 20 15 15 42 11
62 63 72 73 77 86 79 74 80 73 62 56 49 42 40 38 29 28 27 28 33 31 27 18 13 7 7 2 0 7 6 3 359 359 1 2 7 6 8 11 14 12 3 358 1 6 12 16 13 17 28 9
56 66 64 69 73 78 87 93 86 73 54 49 41 35 30 29 11 10 8 13 5 18 11 13 9 357 2 4 8 8 6 0 360 0 5 7 9 8 13 13 17 11 2 356 357 357 2 5 14 7 21 357
58 72 84 90 100 109 110 101 83 75 66 60 29 16 13 357 8 350 345 326 18 328 347 344 343 347 358 357 5 3 1 1 360 2 360 4 3 4 9 12 15 8 1 1 359 355 352 353 18 7 354 351
66 85 105 129 139 121 108 99 79 44 27 17 10 13 5 3 348 314 274 322 313 309 328 291 310 329 343 346 351 352 356 355 355 358 357 356 352 354 0 8 12 359 354 354 356 355 349 3 10 355 352 343
74 76 99 51 39 66 58 40 34 29 34 32 35 26 22 20 7 1 342 324 337 358 323 310 321 332 345 354 351 345 343 345 344 349 347 352 353 350 353 7 24 353 336 332 344 352 357 14 340 342 332 342
12 13 15 13 7 358 36 47 47 40 44 43 39 35 32 33 31 26 28 28 29 15 12 8 12 6 1 355 349 341 333 329 331 333 336 345 347 348 347 12 339 321 307 299 319 2 12 349 307 313 306 324
27 24 31 30 30 48 52 47 50 45 43 39 36 33 31 28 32 33 32 24 19 20 12 3 7 5 2 352 352 347 336 325 319 317 324 327 340 345 342 340 319 310 300 277 290 313 305 296 266 268 284 282
34 33 45 39 44 55 48 47 45 42 41 38 35 32 29 26 30 27 23 21 18 13 7 7 3 1 357 352 359 354 345 332 324 328 325 343 337 337 337 334 313 321 303 295 303 298 286 280 281 277 270 265
45 45 43 40 37 47 43 45 46 44 40 36 33 31 27 26 27 23 21 20 17 13 7 6 2 358 354 354 355 352 350 353 356 353 353 335 336 348 343 316 298 296 299 307 308 299 290 276 277 271 266 259
43 39 34 36 32 37 30 29 40 36 36 34 34 30 27 30 21 20 18 16 13 14 6 5 1 356 353 357 357 354 359 359 358 2 355 353 345 335 347 337 333 326 313 295 290 293 284 275 269 268 266 261
41 37 38 34 32 35 35 39 39 36 32 33 32 32 28 36 31 21 18 12 11 5 6 5 356 353 359 0 355 348 3 360 357 353 351 347 345 345 340 337 324 318 309 304 291 294 293 289 280 274 269 263
37 34 36 32 30 31 32 38 34 31 32 34 27 28 29 28 26 22 19 13 4 355 7 358 359 359 356 356 355 350 356 6 352 350 345 343 338 337 335 333 326 320 317 312 306 302 297 292 287 284 283 274
37 31 36 31 28 20 27 31 28 28 32 27 30 25 27 29 31 22 14 6 1 7 357 357 354 358 355 354 351 356 352 348 349 343 341 343 343 342 337 335 325 329 323 324 318 311 309 306 294 288 279 279
35 31 33 28 26 25 22 13 24 29 25 27 25 23 27 34 29 25 14 9 1 2 358 355 354 352 348 353 353 347 343 340 345 339 348 341 339 340 337 332 327 335 333 327 324 318 318 305 312 304 295 288
33 27 24 22 25 22 17 19 23 22 23 22 18 20 27 28 26 23 17 11 3 2 356 353 351 348 353 349 343 345 340 339 342 344 340 343 348 338 343 336 339 339 338 329 321 322 321 317 320 311 306 302
32 25 20 23 21 16 16 22 22 22 15 15 19 21 25 26 26 23 17 8 6 358 356 348 349 350 349 346 341 340 341 342 345 353 352 351 349 347 349 346 340 337 334 329 324 324 315 317 312 305 307 299
26 20 17 18 20 17 14 21 25 17 13 13 14 19 22 22 21 21 14 12 3 1 354 350 349 346 348 346 345 342 349 352 349 353 354 347 352 346 347 338 331 334 331 323 320 321 313 314 303 304 303 300
23 17 14 10 15 14 14 15 28 19 14 15 9 16 18 17 16 14 9 5 6 358 356 351 347 349 349 347 349 352 350 353 351 356 351 347 349 340 343 334 332 330 321 320 319 316 318 315 315 314 308 304
17 14 10 3 1 10 12 12 22 16 14 6 9 21 15 9 11 11 4 1 360 357 352 353 349 346 352 352 354 353 353 358 357 351 348 348 349 344 339 338 332 331 323 320 316 315 315 312 313 308 306 304
8 16 13 1 357 358 3 8 4 3 3 4 14 9 16 8 5 7 360 356 354 357 344 350 348 345 357 355 357 355 353 357 351 352 344 345 346 344 333 334 327 330 325 321 317 316 314 311 308 302 298 296
3 0 9 2 349 355 354 355 351 346 1 359 1 3 6 5 360 360 354 350 345 351 337 344 345 349 359 357 0 358 357 350 345 348 346 341 340 342 338 333 332 325 324 321 318 313 308 302 295 294 294 290
2 357 341 6 342 351 334 344 335 333 345 343 8 356 354 4 360 349 348 341 336 348 332 341 348 3 355 1 1 2 356 351 348 345 346 343 332 340 333 327 323 321 319 321 312 307 300 296 296 292 285 282
359 356 348 345 340 343 336 333 322 337 326 6 1 349 359 357 356 349 345 334 330 336 328 349 355 8 357 4 4 4 359 349 349 341 344 340 339 339 337 341 328 335 329 318 309 302 302 296 294 286 277 272
4 353 344 326 341 333 329 324 326 331 327 2 341 1 1 359 353 351 344 335 335 337 350 2 7 9 4 0 6 5 352 340 337 338 336 333 347 337 339 340 334 339 329 330 319 316 305 298 273 268 269 269
339 336 332 318 302 319 316 316 316 324 331 333 0 6 0 358 356 351 344 338 342 358 14 19 12 7 0 3 358 358 345 342 340 335 338 344 344 335 341 332 329 341 340 355 339 332 323 313 296 263 268 267
301 303 308 315 296 311 308 293 293 317 316 337 11 2 356 359 355 350 345 343 350 1 18 24 20 1 355 4 356 353 349 339 342 334 340 350 342 332 345 321 330 343 355 325 321 304 301 326 334 319 318 338
263 278 302 297 282 290 295 295 303 315 324 344 5 354 347 2 351 352 343 345 356 351 24 25 13 359 1 0 1 351 346 339 338 337 341 345 340 339 337 334 333 341 339 340 333 355 317 310 304 310 28 342
244 273 320 302 304 292 303 312 319 342 326 336 342 340 342 354 355 346 343 347 355 348 23 12 11 8 354 2 359 350 341 339 331 339 340 340 334 349 333 329 325 334 326 333 318 319 327 334 338 266 327 331
220 280 328 328 341 343 341 333 343 339 336 331 325 323 340 348 344 346 342 349 353 349 7 19 0 8 2 357 357 344 342 335 336 336 346 333 340 337 329 326 328 323 326 322 325 303 236 259 291 319 317 337
216 177 311 305 312 309 313 318 310 322 321 308 302 326 342 324 351 342 353 351 348 347 349 13 360 11 3 359 352 339 349 338 344 338 337 329 339 328 332 331 322 322 321 323 319 300 331 320 310 296 314 269